Location: Bruchhof
(51.8738°N, 9.9256°E)
Time: 07:35:01
(UTC+00:00)

Cosmos 1892 - Pass Details

Date: 15 June 2024
Orbit: 452 x 465 km, 82.5° (Epoch: 22 July)

Event Time Altitude Azimuth Distance (km) Brightness Sun altitude
Exits shadow 00:06:09 23° 223° (SW) 1,019 3.7 -14.2°
Maximum altitude 00:07:58 45° 285° (WNW) 634 3.1 -14.1°
Drops below altitude 10° 00:11:23 10° 360° (N) 1,621 6.6 -14.0°
Sets 00:13:33 0° 7° (N) 2,505 8.1 -13.9°
